sat.trackr.live / text

‹ back to catalog

STARLINK-36341

NORAD 67918 · 2026-036Q

PAYLOAD ACTIVE UNKNOWN

§ Identity

Operator
Country
US
Launch date
2026-02-22
Launch site
AFETR
Launch vehicle
Mass (kg)
RCS (m²)

Purposes: comms

External: N2YO · Heavens-Above · Gunter

§ Orbital elements

Epoch: 2026-05-24T12:20:56.991264Z

Period
94.27 min
Inclination
42.9993°
Eccentricity
0.0001513
Mean motion
15.27584807 rev/d
Perigee alt
482.0 km
Apogee alt
484.1 km
Semi-major
6,861.2 km
B*
4.0470e-4
RAAN
177.4814°
Arg perigee
265.9177°
Mean anomaly
94.1501°
Rev number
1,531

§ Raw data

STARLINK-363411 67918U 26036Q   26144.51454851  .00010892  00000+0  40470-3 0  99952 67918  42.9993 177.4814 0001513 265.9177  94.1501 15.27584807 15315

JSON: /api/v1/satellites/67918 · /tle

For live sub-satellite position, see the globe view (requires WebGL).

§ Visibility from observer

Set your observer location to see the next 7 days of passes ≥ 10°. The values pass through the URL so the page stays shareable.

No JS? Fill the form by hand. The geolocation button needs JavaScript.